Powrót do katalogu

STARLINK-5783

AktywnyŁącznośćVLEO
NORAD 56022·PAYLOAD·🇺🇸 United States

Wystrzelony Mar 24, 2023 z Cape Canaveral Space Force Station

Loading…

Następne Przeloty (najbliższe 24 godziny)

TLE

ŚwieżeSource: CelesTrak SupGP

Epoka: Sep 15, 2026, 02:13 UTC

1 56022C 23042AN  26258.09284722 -.00020373  00000+0 -73796-3 0  2582
2 56022  43.0016  55.1991 0001659 254.2737 213.4234 15.27586488    16

Śledź STARLINK-5783 w czasie rzeczywistym z AllMySat

Download on the App Store